Kalispell, MT

9:07 PM MDT on July 21, 2017 (GMT -0600)
Glacier Park International

Weather History for KGPI - February, 2015

Change the Weather History Date:

Saturday, February 14, 2015

  Actual Average Record
Temperature  
Mean Temperature 35 °F 27 °F  
Max Temperature 47 °F 36 °F 51 °F (1971)
Min Temperature 23 °F 18 °F -23 °F (1936)
Degree Days  
Heating Degree Days 30 38  
Month to date heating degree days 409 544  
Since 1 July heating degree days 4938 5335  
Cooling Degree Days 0 0  
Month to date cooling degree days 0 0  
Year to date cooling degree days 0 0  
Moisture  
Dew Point 29 °F    
Average Humidity 83    
Maximum Humidity 100    
Minimum Humidity 65    
Precipitation  
Precipitation 0.00 in 0.03 in 0.48 in (1910)
Month to date precipitation 1.02 0.47  
Year to date precipitation 3.43 1.80  
Snow  
Snow 0.00 in - - ()
Month to date snowfall 8.1  
Year to date snowfall 38.5  
Since 1 July snowfall 65.0  
Snow Depth T in    
Sea Level Pressure  
Sea Level Pressure 30.18 in    
Wind  
Wind Speed 1 mph (East)    
Max Wind Speed 9 mph    
Max Gust Speed 14 mph    
Visibility 9 miles    
Events Fog    
T = Trace of Precipitation, MM = Missing Value Source: NWS Daily Summary

Daily Weather History Graph

Daily Weather History Graph

Search for Another Location

Airport or City:

Trip Planner

Search our weather history database for the weather conditions in past years. The results will help you decide how hot, cold, wet, or windy it might be!

Date:

Astronomy

Feb. 14, 2015 Rise Set
Actual Time 7:45 AM MST 5:57 PM MST
Civil Twilight 7:13 AM MST 6:29 PM MST
Nautical Twilight 6:37 AM MST 7:06 PM MST
Astronomical Twilight 6:00 AM MST 7:42 PM MST
Moon 4:02 AM MST (2/14) 1:25 PM MST (2/14)
Length of Visible Light 11h 15m
Length of Day
10h 11m
Waning Crescent, 23% of the Moon is Illuminated
Feb 14
Waning Crescent
Feb 18
New
Feb 25
First Quarter
Mar 5
Full
Mar 13
Last Quarter

Hourly Weather History & Observations

Time (MST) Temp. Windchill Dew Point Humidity Pressure Visibility Wind Dir Wind Speed Gust Speed Precip Events Conditions
12:55 AM 28.9 °F - 27.0 °F 92% 30.15 in 10.0 mi Calm Calm - N/A   Clear
1:55 AM 28.9 °F - 28.0 °F 96% 30.15 in 10.0 mi Calm Calm - N/A   Clear
2:55 AM 28.0 °F - 28.0 °F 100% 30.15 in 10.0 mi Calm Calm - N/A   Clear
3:55 AM 28.0 °F - 28.0 °F 100% 30.15 in 10.0 mi Calm Calm - N/A   Clear
4:55 AM 28.0 °F - 27.0 °F 96% 30.15 in 10.0 mi Calm Calm - N/A   Clear
5:55 AM 27.0 °F 21.6 °F 26.1 °F 96% 30.17 in 10.0 mi North 4.6 mph - N/A   Partly Cloudy
6:55 AM 26.1 °F - 25.0 °F 96% 30.18 in 10.0 mi Calm Calm - N/A   Clear
7:28 AM 26.6 °F - 24.8 °F 93% 30.10 in 1.2 mi Calm Calm - N/A   Clear
7:37 AM 25.0 °F - 24.1 °F 96% 30.10 in 0.5 mi Calm Calm - N/A Fog Light Freezing Fog
7:44 AM 25.0 °F 20.7 °F 25.0 °F 100% 30.10 in 1.0 mi NE 3.5 mph - N/A   Mist
7:49 AM 23.0 °F 18.4 °F 21.2 °F 93% 30.10 in 6.0 mi ENE 3.5 mph - N/A   Clear
7:55 AM 24.1 °F - 23.0 °F 96% 30.19 in 6.0 mi Calm Calm - N/A   Clear
8:55 AM 30.9 °F - 28.9 °F 92% 30.20 in 10.0 mi Calm Calm - N/A   Clear
9:55 AM 32.0 °F - 30.0 °F 92% 30.22 in 9.0 mi Calm Calm - N/A   Mostly Cloudy
10:55 AM 37.0 °F 33.3 °F 32.0 °F 82% 30.22 in 10.0 mi SSW 4.6 mph - N/A   Mostly Cloudy
11:55 AM 41.0 °F 39.0 °F 34.0 °F 76% 30.22 in 10.0 mi SE 3.5 mph - N/A   Partly Cloudy
12:55 PM 46.0 °F - 36.0 °F 68% 30.17 in 10.0 mi Calm Calm - N/A   Clear
1:55 PM 46.4 °F 42.9 °F 35.6 °F 66% 30.10 in 10.0 mi SSW 6.9 mph - N/A   Mostly Cloudy
2:55 PM 46.9 °F - 35.1 °F 63% 30.17 in 10.0 mi South 3.5 mph - N/A   Overcast
3:55 PM 46.0 °F - 35.1 °F 66% 30.18 in 10.0 mi Calm Calm - N/A   Overcast
4:55 PM 43.0 °F 40.3 °F 35.1 °F 74% 30.19 in 10.0 mi ENE 4.6 mph - N/A   Mostly Cloudy
5:55 PM 39.0 °F - 33.1 °F 79% 30.20 in 10.0 mi Calm Calm - N/A   Clear
6:55 PM 37.0 °F - 33.1 °F 86% 30.22 in 10.0 mi Calm Calm - N/A   Overcast
7:55 PM 35.1 °F - 32.0 °F 89% 30.23 in 10.0 mi Calm Calm - N/A   Partly Cloudy
8:55 PM 34.0 °F - 32.0 °F 92% 30.23 in 10.0 mi Calm Calm - N/A   Clear
9:55 PM 32.0 °F 28.7 °F 30.0 °F 92% 30.26 in 10.0 mi East 3.5 mph - N/A   Clear
10:55 PM 28.9 °F - 28.0 °F 96% 30.27 in 10.0 mi Calm Calm - N/A   Scattered Clouds
11:55 PM 30.0 °F - 28.0 °F 92% 30.27 in 10.0 mi Calm Calm - N/A   Partly Cloudy